Volver al catálogo

INDOSTAR 1

ActivoComunicacionesGEO
NORAD 25050·PAYLOAD·🇮🇩 Indonesia

Lanzado Nov 11, 1997 desde Guiana Space Centre

Loading…

TLE

ActualizadoSource: Space-Track

Época: Sep 14, 2026, 10:39 UTC

1 25050U 97071B   26257.44434458  .00000008  00000-0  00000-0 0  9992
2 25050  13.0547  19.3522 0002398 263.4129 290.2104  1.00355395105695

Sigue INDOSTAR 1 en tiempo real con AllMySat

Download on the App Store